TimeCST,TemperatureF,Dew PointF,Humidity,Sea Level PressureIn,VisibilityMPH,Wind Direction,Wind SpeedMPH,Gust SpeedMPH,PrecipitationIn,Events,Conditions,WindDirDegrees,DateUTC
12:15 AM,52.0,46.8,82,29.75,10.0,South,9.2,-,N/A,,Overcast,180,2013-12-20 06:15:00
12:35 AM,51.6,47.1,85,29.74,10.0,South,10.4,-,N/A,,Overcast,180,2013-12-20 06:35:00
12:55 AM,52.0,47.3,84,29.73,10.0,South,9.2,-,N/A,,Overcast,180,2013-12-20 06:55:00
1:15 AM,52.2,47.3,83,29.73,10.0,South,9.2,-,N/A,,Overcast,170,2013-12-20 07:15:00
1:35 AM,52.2,47.5,84,29.72,10.0,South,9.2,-,N/A,,Overcast,170,2013-12-20 07:35:00
1:55 AM,52.5,47.7,84,29.73,10.0,South,10.4,-,N/A,,Overcast,170,2013-12-20 07:55:00
2:15 AM,52.9,48.2,84,29.72,10.0,South,10.4,-,N/A,,Overcast,180,2013-12-20 08:15:00
2:35 AM,53.6,48.7,84,29.73,10.0,South,8.1,-,N/A,Rain,Rain,180,2013-12-20 08:35:00
2:55 AM,52.7,48.9,87,29.73,10.0,South,6.9,-,N/A,,Light Drizzle,170,2013-12-20 08:55:00
3:15 AM,52.9,49.3,88,29.73,10.0,South,3.5,-,N/A,,Overcast,190,2013-12-20 09:15:00
3:35 AM,52.9,49.1,87,29.72,10.0,South,5.8,-,N/A,,Overcast,170,2013-12-20 09:35:00
3:55 AM,53.2,49.3,86,29.72,10.0,South,5.8,-,N/A,,Overcast,180,2013-12-20 09:55:00
4:15 AM,52.7,49.3,88,29.71,10.0,SSE,4.6,-,N/A,,Overcast,160,2013-12-20 10:15:00
4:35 AM,52.2,49.3,90,29.71,10.0,SSE,5.8,-,N/A,,Overcast,160,2013-12-20 10:35:00
4:55 AM,52.7,49.5,89,29.71,10.0,South,5.8,-,N/A,,Overcast,170,2013-12-20 10:55:00
5:15 AM,52.7,49.3,88,29.70,10.0,SSE,6.9,-,N/A,,Overcast,160,2013-12-20 11:15:00
5:35 AM,52.9,49.5,88,29.70,10.0,South,9.2,-,N/A,,Overcast,170,2013-12-20 11:35:00
5:55 AM,53.4,49.8,88,29.69,10.0,South,8.1,-,N/A,,Mostly Cloudy,180,2013-12-20 11:55:00
6:15 AM,53.8,50.0,87,29.71,10.0,WNW,6.9,-,N/A,,Overcast,290,2013-12-20 12:15:00
6:35 AM,52.3,49.3,89,29.72,10.0,West,4.6,-,N/A,,Overcast,260,2013-12-20 12:35:00
6:55 AM,52.3,49.5,90,29.72,10.0,SSW,3.5,-,N/A,,Overcast,200,2013-12-20 12:55:00
7:15 AM,52.9,50.0,90,29.72,10.0,SSW,3.5,-,N/A,,Overcast,200,2013-12-20 13:15:00
7:35 AM,52.9,50.0,90,29.72,10.0,Calm,Calm,-,N/A,,Overcast,0,2013-12-20 13:35:00
7:55 AM,52.0,49.6,92,29.72,7.0,Calm,Calm,-,N/A,,Overcast,0,2013-12-20 13:55:00
8:15 AM,51.4,49.3,92,29.73,4.0,Calm,Calm,-,N/A,,Overcast,0,2013-12-20 14:15:00
8:35 AM,51.8,50.0,94,29.73,4.0,Calm,Calm,-,N/A,,Overcast,0,2013-12-20 14:35:00
8:55 AM,51.1,49.1,93,29.72,0.2,Calm,Calm,-,N/A,Fog,Fog,0,2013-12-20 14:55:00
9:15 AM,50.0,48.2,94,29.73,0.8,SSE,4.6,-,N/A,,Overcast,160,2013-12-20 15:15:00
9:35 AM,51.1,49.3,94,29.74,2.5,Calm,Calm,-,N/A,Rain,Rain,0,2013-12-20 15:35:00
9:55 AM,50.4,48.6,94,29.75,2.0,Calm,Calm,-,N/A,,Overcast,0,2013-12-20 15:55:00
10:15 AM,50.9,49.1,94,29.76,2.0,Calm,Calm,-,0.01,,Overcast,0,2013-12-20 16:15:00
10:35 AM,49.6,48.0,94,29.76,0.2,WNW,4.6,-,0.01,Fog,Fog,300,2013-12-20 16:35:00
10:55 AM,48.6,46.9,94,29.76,0.2,West,8.1,-,0.01,Fog,Fog,280,2013-12-20 16:55:00
11:15 AM,43.7,42.1,94,29.76,0.8,WNW,6.9,-,N/A,,Overcast,290,2013-12-20 17:15:00
11:35 AM,41.2,39.7,95,29.77,1.0,West,12.7,16.1,N/A,,Overcast,280,2013-12-20 17:35:00
11:55 AM,39.2,37.8,95,29.76,0.8,WNW,9.2,-,N/A,,Overcast,290,2013-12-20 17:55:00
12:15 PM,38.3,37.0,95,29.77,0.5,West,13.8,17.3,N/A,Fog,Fog,280,2013-12-20 18:15:00
12:35 PM,37.8,36.5,95,29.76,0.5,West,8.1,-,N/A,Fog,Fog,280,2013-12-20 18:35:00
12:55 PM,37.6,36.5,96,29.77,0.8,West,9.2,-,N/A,,Overcast,280,2013-12-20 18:55:00
1:15 PM,37.4,36.1,95,29.78,1.0,WNW,9.2,-,N/A,,Overcast,290,2013-12-20 19:15:00
1:35 PM,37.0,36.0,96,29.78,1.0,WNW,9.2,-,N/A,,Overcast,290,2013-12-20 19:35:00
1:55 PM,37.0,36.0,96,29.78,1.0,WNW,9.2,-,N/A,,Overcast,290,2013-12-20 19:55:00
2:15 PM,36.9,35.8,96,29.78,1.2,West,9.2,-,N/A,,Overcast,280,2013-12-20 20:15:00
2:35 PM,36.3,35.2,96,29.79,1.5,WNW,9.2,-,N/A,,Overcast,290,2013-12-20 20:35:00
2:55 PM,36.5,35.2,95,29.80,0.8,WNW,9.2,-,N/A,,Overcast,290,2013-12-20 20:55:00
3:15 PM,35.8,34.7,96,29.81,0.8,WNW,6.9,-,N/A,,Overcast,290,2013-12-20 21:15:00
3:35 PM,35.6,34.3,95,29.82,1.0,WNW,12.7,16.1,N/A,,Overcast,290,2013-12-20 21:35:00
3:55 PM,35.2,34.2,96,29.82,1.0,WNW,8.1,-,N/A,,Overcast,290,2013-12-20 21:55:00
4:15 PM,34.9,33.8,96,29.83,1.5,WNW,10.4,-,N/A,,Overcast,290,2013-12-20 22:15:00
4:35 PM,34.7,33.6,96,29.84,2.5,WNW,9.2,-,N/A,,Overcast,290,2013-12-20 22:35:00
4:55 PM,34.7,33.4,95,29.84,2.0,WNW,10.4,-,N/A,,Overcast,290,2013-12-20 22:55:00
5:15 PM,34.2,33.1,96,29.85,2.5,WNW,6.9,-,N/A,,Overcast,290,2013-12-20 23:15:00
5:35 PM,33.8,32.7,96,29.86,2.0,WNW,9.2,-,N/A,,Overcast,290,2013-12-20 23:35:00
5:55 PM,33.6,32.5,96,29.86,2.0,WNW,9.2,-,N/A,,Overcast,290,2013-12-20 23:55:00
6:15 PM,33.3,32.2,96,29.87,1.8,West,8.1,-,N/A,,Overcast,280,2013-12-21 00:15:00
6:35 PM,32.9,32.0,96,29.87,2.0,WNW,8.1,-,N/A,,Overcast,300,2013-12-21 00:35:00
6:55 PM,32.9,32.0,96,29.87,3.0,WNW,8.1,-,N/A,,Overcast,290,2013-12-21 00:55:00
7:15 PM,32.5,32.0,98,29.88,7.0,West,6.9,-,N/A,,Overcast,280,2013-12-21 01:15:00
7:35 PM,32.7,32.0,97,29.89,7.0,WNW,4.6,-,N/A,,Overcast,290,2013-12-21 01:35:00
7:55 PM,32.7,31.8,96,29.89,7.0,WNW,5.8,-,N/A,,Overcast,290,2013-12-21 01:55:00
8:15 PM,32.5,31.1,94,29.89,10.0,West,5.8,-,N/A,,Overcast,280,2013-12-21 02:15:00
8:35 PM,32.4,31.1,95,29.87,7.0,WNW,8.1,-,N/A,,Overcast,300,2013-12-21 02:35:00
8:55 PM,32.4,30.7,94,29.87,10.0,WNW,5.8,-,N/A,,Overcast,300,2013-12-21 02:55:00
9:15 PM,32.4,30.7,94,29.87,10.0,West,4.6,-,N/A,,Overcast,280,2013-12-21 03:15:00
9:35 PM,32.2,30.9,95,29.86,7.0,NW,4.6,-,N/A,,Overcast,310,2013-12-21 03:35:00
9:55 PM,32.0,30.9,96,29.87,5.0,NW,5.8,-,N/A,,Overcast,310,2013-12-21 03:55:00
10:15 PM,32.0,30.4,94,29.87,7.0,NW,6.9,-,N/A,,Overcast,320,2013-12-21 04:15:00
10:35 PM,32.0,30.2,93,29.88,7.0,WNW,4.6,-,N/A,,Overcast,300,2013-12-21 04:35:00
10:55 PM,32.0,30.2,93,29.88,5.0,West,4.6,-,N/A,,Overcast,280,2013-12-21 04:55:00
11:15 PM,32.0,30.4,94,29.87,7.0,WNW,4.6,-,N/A,,Overcast,290,2013-12-21 05:15:00
11:35 PM,32.0,30.2,93,29.86,7.0,NW,4.6,-,N/A,Rain,Light Rain,320,2013-12-21 05:35:00
11:55 PM,31.6,30.2,94,29.85,4.0,WNW,4.6,-,N/A,,Overcast,300,2013-12-21 05:55:00